Gander International Airport

Jump to: basic info | weather | frequencies | runways | comments

Related pages: nearby airports | nearby navaids | notams | map

Basic information (top)

Codes: YQX CYQX
Location: lon 48.936901, lat -54.568100, elev 496 ft / 151 m msl
Status: medium_airport
Scheduled airline service: yes
Links: Wikipedia Mobile

Weather (top)

Current conditions (rec'd 2014/09/02 13:00Z):

CYQX 021300Z 13006KT 20SM FEW040 BKN260 15/10 A3012 RMK SC1CI4 CF TR SLP202

Airport forecast (rec'd 2014/09/02 12:38Z):

TAF CYQX 021138Z 0212/0312 16008KT P6SM SCT002 
      TEMPO 0212/0214 2SM BR BKN002 
     FM021500 16012KT P6SM FEW030 
      BECMG 0304/0306 19012KT 
      RMK NXT FCST BY 021800Z

Frequencies (top)

Verify before use: may be inaccurate or out of date.

A/D: 128.5 MHz (APP/DEP)
ATIS: 124.8 MHz (ATIS)
GND: 121.9 MHz (GND)
OPS: 128.85 MHz (OUTCAST OPS)
RCO: 126.7 MHz (HALIFAX RDO)
TWR: 118.1 MHz (TWR)

Runways (top)

03/21: 10,200 x 200 ft (3,109 x 61 m) — paved — lighted

09/27 [CLOSED]: 1,875 x 50 ft (572 x 15 m) — paved — not lighted

13/31: 8,900 x 200 ft (2,713 x 61 m) — paved — lighted

Latest comments (top)

Gander hospitality: Our USAirways flight from Dublin to ... [read]

More... (top)

See also NOTAMs and nearby airports and navaids, or visit the Gander International Airport page at the main OurAirports website..